VK5KJP Weather Reports


time (UTC)temp
F
wind
direction
speed
knots
gust
knots
rain 1hr
in
rain 24hr
in
rain mn
in
humidity
%
barometer
mb
20260503220526 56 277 6.1 8.7 0.02 0.47 0.13 94 1016.2
20260503215550 56 285 7.8 10.4 0.02 0.47 0.13 93 1016.0
20260503214556 55 276 7.8 10.4 0.06 0.47 0.13 93 1015.9
20260503213610 56 286 3.5 8.7 0.11 0.47 0.13 93 1015.8
20260503212549 56 265 7.8 9.6 0.11 0.47 0.13 93 1015.8
20260503211549 56 277 8.7 12.2 0.11 0.47 0.13 93 1015.8
20260503210549 56 294 9.6 11.3 0.09 0.46 0.11 93 1015.6
20260503205526 57 293 8.7 11.3 0.11 0.46 0.11 92 1015.5
20260503204549 56 274 12.2 13.0 0.06 0.41 0.06 91 1015.4
20260503203536 56 272 11.3 13.0 0.02 0.36 0.02 91 1015.2
20260503202549 56 294 9.6 13.0 0.02 0.36 0.02 91 1014.9
20260503201549 57 289 10.4 13.0 0.02 0.36 0.02 91 1014.9
20260503200609 57 267 12.2 16.5 0.02 0.36 0.02 90 1014.9
20260503195549 57 290 11.3 14.8 0.00 0.35 0.00 90 1014.8
20260503194526 57 272 9.6 11.3 0.00 0.35 0.00 89 1014.9
20260503193610 56 280 11.3 13.0 0.00 0.35 0.00 89 1014.8
20260503192536 56 281 10.4 13.0 0.00 0.35 0.00 89 1014.7
20260503191549 56 266 9.6 13.0 0.00 0.35 0.00 89 1014.6
20260503190549 56 281 11.3 13.0 0.00 0.35 0.00 89 1014.6
20260503185609 56 290 10.4 13.0 0.00 0.35 0.00 89 1014.6
20260503184549 56 276 10.4 13.9 0.00 0.35 0.00 88 1014.6
20260503183526 56 290 9.6 12.2 0.00 0.35 0.00 88 1014.6
20260503182549 56 262 10.4 13.9 0.00 0.35 0.00 88 1014.4
20260503181536 56 282 10.4 13.9 0.00 0.35 0.00 88 1014.4
20260503180549 56 281 11.3 13.0 0.00 0.35 0.00 88 1014.4
20260503175609 57 286 9.6 11.3 0.00 0.35 0.00 88 1014.4
20260503174549 57 266 10.4 13.0 0.00 0.35 0.00 88 1014.5
20260503173549 56 281 12.2 13.9 0.00 0.35 0.00 88 1014.5
20260503172526 56 272 12.2 13.9 0.00 0.35 0.00 89 1014.5
20260503171549 56 274 10.4 12.2 0.00 0.35 0.00 89 1014.5
20260503170536 56 272 10.4 15.6 0.00 0.35 0.00 88 1014.5
20260503150526 57 284 12.2 13.9 0.00 0.35 0.00 86 1014.7
20260503130549 56 274 10.4 13.0 0.00 0.33 0.33 87 1015.4
20260503110549 55 279 9.6 12.2 0.00 0.33 0.33 91 1014.9
20260503081634 57 266 10.4 13.0 0.11 0.11 0.11 91 1013.6
20260503080526 59 258 12.2 13.9 0.09 0.09 0.09 89 1013.7
20260503072609 61 289 11.3 13.9 0.00 0.00 0.00 73 1013.0
20260503071548 61 292 11.3 14.8 0.00 0.00 0.00 75 1013.1
20260503070548 62 285 12.2 13.9 0.00 0.00 0.00 75 1013.1
20260503054527 59 262 13.0 17.4 0.00 0.00 0.00 86 1013.2
20260503053608 58 260 13.9 16.5 0.00 0.00 0.00 88 1013.2
20260503052557 61 262 15.6 20.0 0.00 0.00 0.00 87 1013.3
20260503051548 65 262 20.9 28.7 0.00 0.00 0.00 63 1013.0
20260503050548 67 265 16.5 20.0 0.00 0.00 0.00 52 1012.6
20260503045608 67 274 16.5 20.9 0.00 0.00 0.00 52 1012.5
20260503044709 66 302 16.5 20.0 0.00 0.00 0.00 54 1012.6
20260503043526 67 301 17.4 23.5 0.00 0.00 0.00 53 1012.6
20260503042548 67 272 21.7 38.2 0.00 0.00 0.00 54 1012.6
20260503041537 66 303 17.4 20.0 0.00 0.00 0.00 55 1012.7
20260503040548 63 280 15.6 20.0 0.00 0.00 0.00 62 1012.8
20260503035629 65 285 17.4 22.6 0.00 0.00 0.00 66 1013.0
20260503034608 66 280 19.1 22.6 0.00 0.02 0.00 52 1012.9
20260503033548 66 263 19.1 26.1 0.00 0.02 0.00 53 1013.0
20260503032526 65 282 19.1 22.6 0.00 0.02 0.00 57 1013.0
20260503031548 65 277 19.1 24.3 0.00 0.02 0.00 61 1013.1
20260503030537 67 273 19.1 22.6 0.00 0.03 0.00 59 1013.3
20260503025548 67 282 18.2 23.5 0.00 0.06 0.00 56 1013.2
20260503024548 67 288 20.0 24.3 0.00 0.08 0.00 54 1013.3
20260503023548 67 282 18.2 20.9 0.00 0.08 0.00 51 1013.4
20260503022548 66 276 19.1 24.3 0.00 0.08 0.00 55 1013.4
20260503021527 66 265 20.0 24.3 0.00 0.08 0.00 56 1013.6
20260503020548 65 287 20.0 25.2 0.00 0.08 0.00 57 1013.6
20260503015537 65 270 20.0 24.3 0.00 0.08 0.00 58 1013.6
20260503014548 64 303 20.0 26.1 0.00 0.08 0.00 57 1013.6
20260503013548 64 291 17.4 20.9 0.00 0.08 0.00 65 1013.7
20260503012548 64 285 15.6 24.3 0.00 0.08 0.00 64 1013.7
20260503011608 64 300 15.6 21.7 0.00 0.08 0.00 63 1013.7
20260503010527 63 310 17.4 23.5 0.00 0.08 0.00 65 1013.9
20260503005548 63 280 18.2 21.7 0.00 0.08 0.00 65 1013.9
20260503004537 63 277 14.8 20.0 0.00 0.08 0.00 66 1013.9
20260503003628 63 303 15.6 21.7 0.00 0.08 0.00 66 1013.9
20260503002548 62 310 16.5 21.7 0.00 0.08 0.00 66 1014.1
20260503001548 62 288 17.4 22.6 0.00 0.08 0.00 67 1014.2
20260503000548 61 288 16.5 23.5 0.00 0.08 0.00 68 1014.1
20260502235527 61 301 17.4 22.6 0.00 0.08 0.00 69 1013.9
20260502234548 61 285 13.9 20.9 0.00 0.08 0.00 70 1013.8
20260502233537 60 303 14.8 16.5 0.00 0.08 0.00 70 1013.9
20260502232548 60 288 14.8 19.1 0.00 0.08 0.00 72 1013.9
20260502231548 59 292 13.9 16.5 0.00 0.08 0.00 73 1014.0
20260502230548 58 303 13.0 13.9 0.00 0.08 0.00 75 1014.1
20260502225548 58 291 13.0 14.8 0.00 0.08 0.00 76 1014.1
20260502224526 57 293 12.2 13.9 0.00 0.08 0.00 78 1014.2
20260502223548 56 297 11.3 13.0 0.00 0.08 0.00 80 1014.0
20260502222537 56 298 12.2 13.9 0.00 0.08 0.00 81 1014.0
20260502221548 55 303 13.0 13.9 0.00 0.08 0.00 82 1014.0